Location: Geremba
(10.4250°N, 67.2394°W)
Time: 22:09:14
(UTC+00:00)

Meteor 2-21 Rocket - Pass Details

Date: 23 May 2024
Orbit: 934 x 968 km, 82.5° (Epoch: 25 June)

Event Time Altitude Azimuth Distance (km) Brightness Sun altitude
Exits shadow 00:11:24 - 180° (S) 3,307 7.0 -20.2°
Reaches altitude 10° 00:13:00 10° 179° (S) 2,703 6.6 -20.6°
Maximum altitude 00:19:12 79° 93° (E) 986 4.3 -21.9°
Drops below altitude 10° 00:25:23 10° 7° (N) 2,697 7.0 -23.3°
Sets 00:27:53 0° 7° (N) 3,641 7.8 -23.8°
